Regional Weather Roundup
Issued by NWS Green Bay, WI

Home | Current Version | Previous Version | Graphics & Text | Print | Product List | Glossary Off
Versions: 1 2 3 4 5 6 7 8 9 10 11 12 13 14 15 16 17 18 19 20 21 22 23 24 25 26 27 28 29 30 31 32 33 34 35 36 37 38 39 40 41 42 43 44 45 46 47 48 49 50

000
ASUS43 KGRB 271200
RWRGRB

NORTH-CENTRAL AND NORTHEAST WISCONSIN REGIONAL WEATHER ROUNDUP
NATIONAL WEATHER SERVICE GREEN BAY WI
700 AM CDT THU APR 27 2017

WIZ005-009-010>012-018-019-271300-
NORTH CENTRAL WISCONSIN

CITY           SKY/WX    TMP DP  RH WIND       PRES   REMARKS
IRONWOOD       LGT SNOW  26  25  96 N7G17     29.48F FOG
MANITOWISH WTR NOT AVBL
ARBOR VITAE    NOT AVBL
EAGLE RIVER    NOT AVBL
LAND O LAKES   NOT AVBL
RHINELANDER    FRZ RAIN  31  29  92 N8G17     29.38F FOG
PHILLIPS       MIX PCPN  27  25  89 N9        29.42S
ANTIGO         NOT AVBL
TOMAHAWK       NOT AVBL
MERRILL        NOT AVBL
$$

WIZ013-073-271300-
NORTHEAST WISCONSIN

CITY           SKY/WX    TMP DP  RH WIND       PRES   REMARKS
IRON MOUNTAIN  LGT RAIN  34  30  85 NW13      29.33F
MARINETTE      RAIN      39  37  92 N10       29.31F
$$

WIZ017-030-035>037-045-271300-
CENTRAL WISCONSIN

CITY           SKY/WX    TMP DP  RH WIND       PRES   REMARKS
MEDFORD        NOT AVBL
WAUSAU         RAIN      33  31  92 NW8       29.35F FOG
MOSINEE        LGT RAIN  34  34 100 N10       29.37F
MARSHFIELD     RAIN      33  30  88 NW14      29.39R FOG
WISC RAPIDS    RAIN      35  34  96 N12       29.38F FOG
STEVENS POINT  NOT AVBL
WAUPACA        NOT AVBL
SHAWANO        NOT AVBL
CLINTONVILLE   RAIN      37  37 100 NW10      29.32S
WAUTOMA        RAIN      38  37  97 NW8       29.35S
$$

WIZ038-039-048-051-271300-
FOX VALLEY

CITY           SKY/WX    TMP DP  RH WIND       PRES   REMARKS
NWS GREEN BAY  RAIN      42  41  96 N10       29.32R FOG
APPLETON       LGT RAIN  43  43 100 NW12      29.30S FOG
OSHKOSH        RAIN      42  40  92 NW10      29.30F FOG
FOND DU LAC    RAIN      43  40  89 NW10      29.30F
$$

WIZ022-050-052-271300-
EAST CENTRAL WISCONSIN

CITY           SKY/WX    TMP DP  RH WIND       PRES   REMARKS
EPHRAIM        NOT AVBL
WASHINGTON ISL NOT AVBL
STURGEON BAY   LGT RAIN  41  40  96 N15       29.29F
MANITOWOC      NOT AVBL
SHEBOYGAN      LGT RAIN  48  46  93 NW8       29.28S
$$

LMZ563-521-522-541>543-271300-
LAKESHORE

STATION/POSITION TIME  TEMP    WIND        PRES    VSBY  WAVE
                       AIR SEA DIR/SP/G                  HT/PER
                 (UTC) (F)     (DEG/KT/KT) (MB)    (MI)  (FT/S)
KEWAUNEE LKSHORE 1130   44      20/  6/ 10  991.7F
N MID LAKE BUOY  1050   39 37   20/ 12/ 16  993.0F         1/ 3
CHAMBERS ISLAND  1140   40     340/ 14/ 16  992.6F
MENOMINEE LKSHOR 1130   41     340/ 13/ 15  991.9F
$$



USA.gov is the U.S. government's official web portal to all federal, state and local government web resources and services.